Location: Badger Butte
(44.9311°N, 118.3053°W)
Time: 05:05:52
(UTC+00:00)

Daily predictions for brighter satellites

Satellite Brightness Start Highest point End
(mag) Time Altitude Azimuth Time Altitude Azimuth Time Altitude Azimuth
ALOS 3.2 01:56:20 10° ESE 02:00:11 26° ENE 02:04:04 10° N
Cosmos 1536 Rocket 4.3 01:56:54 10° N 02:00:57 32° ENE 02:04:58 10° SE
Cosmos 2333 Rocket 4.1 02:04:02 10° NNE 02:05:49 11° NE 02:07:35 10° NE
BREEZE-M DEB (TANK) 2.0 02:05:59 10° WNW 02:08:08 48° NNE 02:11:48 10° E
Cosmos 1818 4.2 02:03:56 10° S 02:08:52 37° ESE 02:13:51 10° NE
Meteor 1-18 Rocket 4.2 02:03:36 10° N 02:09:11 76° E 02:14:47 10° SSE
Cosmos 1484 Rocket 3.9 02:05:31 10° S 02:09:23 51° W 02:13:13 10° NNW
Cosmos 2082 Rocket 4.2 02:04:50 10° WSW 02:09:41 28° NW 02:14:34 10° N
SJ-6B 3.2 02:06:57 10° SE 02:10:44 41° ENE 02:14:29 10° N
ATLAS CENTAUR R/B 3.9 02:08:28 10° W 02:11:35 18° NW 02:14:36 10° N
SL-16 R/B 2.2 02:06:44 10° NNW 02:12:27 86° ENE 02:18:08 10° SSE
NOSS 2-2 (C) 3.9 02:09:47 10° SW 02:13:51 68° NW 02:18:41 10° NE
Cosmos 1340 3.5 02:11:19 10° N 02:14:43 30° ENE 02:18:04 10° SE
Nadezhda 1 Rocket 4.0 02:11:07 10° N 02:17:15 88° E 02:23:19 10° S
DNEPR-1 R/B 3.5 02:14:09 10° NW 02:18:28 84° WSW 02:22:42 10° SSE
Resurs 01 Rocket 2.5 02:14:50 10° SE 02:18:38 29° ENE 02:22:27 10° N
Cosmos 1238 Rocket 3.3 02:18:04 10° NNE 02:20:34 23° ENE 02:23:00 10° SE
Cosmos 407 Rocket 3.5 02:17:03 10° S 02:22:13 61° ESE 02:27:27 10° NNE
Tiangong 2 2.4 02:20:46 10° W 02:23:36 33° SSW 02:26:25 10° SE
Meteor 1-28 Rocket 3.4 02:20:15 10° N 02:24:04 76° WNW 02:27:51 10° SSW
DELTA 2 R/B (1) 4.3 02:18:49 10° W 02:24:11 48° S 02:29:25 11° ESE
Cosmos 676 Rocket 4.3 02:19:34 10° S 02:24:28 44° ESE 02:29:25 10° NNE
BREEZE-M DEB (TANK) 4.2 02:16:26 10° WNW 02:27:17 62° SW 02:30:35 10° SE
Meteor 1-20 Rocket 4.3 02:21:56 10° S 02:27:45 80° E 02:33:37 10° NNE
Cosmos 2322 Rocket 2.6 02:24:42 10° NNW 02:30:18 69° WSW 02:35:51 10° SSE
Cosmos 2181 Rocket 4.1 02:25:30 10° N 02:31:35 52° ENE 02:37:42 10° SSE
COSMO-SKYMED 1 3.5 02:28:20 10° N 02:32:35 52° WNW 02:36:48 10° SSW
Cosmos 1300 Rocket 4.1 02:30:17 10° SSE 02:34:19 36° E 02:38:23 10° NNE
Cosmos 1536 4.0 02:32:23 10° SE 02:35:26 21° E 02:38:28 10° NE
Meteor 1-13 Rocket 4.2 02:32:36 10° N 02:38:04 57° ENE 02:43:35 10° SSE
Okean 1 3.4 02:35:00 10° N 02:39:05 84° W 02:43:08 10° S
Okean 2 Rocket 4.3 02:36:02 10° SSW 02:40:18 45° WNW 02:44:35 10° N
USA 186 4.0 02:42:24 11° NNE 02:42:24 11° NNE 02:42:41 10° NNE
CZ-2D R/B 4.1 02:38:26 15° ESE 02:40:58 29° ENE 02:44:18 10° N
Resurs 1-3 4.0 02:37:00 10° SE 02:41:06 40° ENE 02:45:13 10° N
Cosmos 2322 3.8 02:37:30 10° NNW 02:43:10 56° ENE 02:48:45 10° SE
Cosmos 1461 3.5 02:39:15 10° NW 02:43:10 54° WSW 02:47:10 10° SSE
Cosmos 1140 Rocket 3.8 02:42:22 10° S 02:47:11 42° ESE 02:52:02 10° NNE
Cosmos 1190 Rocket 4.3 02:42:46 10° SSW 02:47:57 71° WNW 02:53:10 10° NNE
FENGYUN 3A 3.6 02:43:02 10° SSE 02:48:25 73° ENE 02:53:50 10° N
H-2A R/B 2.9 02:46:26 10° SSE 02:50:01 47° ENE 02:53:37 10° N
Cosmos 2074 Rocket 4.5 02:47:02 10° SSE 02:52:37 36° E 02:58:14 10° NNE
Cosmos 1709 Rocket 3.9 02:47:00 10° S 02:53:15 81° E 02:59:26 10° N
COSMOS 2428 3.2 02:50:50 10° NNW 02:56:11 40° NE 02:59:03 24° ESE
SAR-Lupe-4 3.9 02:55:00 28° ESE 02:56:19 40° ENE 02:59:43 10° N
SL-19 R/B 4.3 02:51:00 10° SSE 02:56:38 77° ENE 03:02:39 10° NNW
Cosmos 2237 4.4 02:51:13 10° NNW 02:56:49 49° ENE 03:00:37 20° SE
Spot 2 Rocket 3.4 02:52:12 10° SSE 02:57:13 69° ENE 03:02:17 10° N
Meteor 2-4 Rocket 3.8 02:51:50 10° N 02:57:18 52° ENE 03:02:36 10° SSE
Cosmos 2151 Rocket 4.2 02:54:29 10° SSW 02:58:57 61° W 03:03:27 10° N
Cosmos 614 Rocket 4.3 02:54:39 10° S 02:59:23 41° ESE 03:04:08 10° NE
Helios 1A 3.4 02:58:08 26° ESE 02:59:58 40° ENE 03:03:53 10° N
Cosmos 2292 Rocket 4.5 02:55:12 10° SSW 03:00:16 79° W 03:07:11 10° N
HJ-1C 3.7 03:01:41 10° S 03:05:02 66° WSW 03:08:25 10° NNW
Cosmos 2237 Rocket 3.6 03:01:06 10° N 03:05:12 20° NE 03:05:44 19° NE
Okean 1 Rocket 3.1 03:00:53 10° S 03:05:17 59° E 03:09:43 10° NNE
Cosmos 1850 Rocket 4.4 03:01:22 10° S 03:06:17 41° ESE 03:11:17 10° NE
Envisat 3.6 03:13:16 33° ENE 03:13:34 33° ENE 03:18:06 10° N
GEOS 3 Rocket 3.6 03:09:23 12° NE 03:14:19 87° SE 03:19:36 10° SW
Meteor 1-11 Rocket 3.7 03:09:29 10° S 03:15:16 83° E 03:21:13 10° NNE
Cosmos 1954 Rocket 4.0 03:10:26 10° SSW 03:15:38 83° WNW 03:20:54 10° NNE
USA 229 DEB 4.0 03:09:36 10° NNW 03:16:33 52° NE 03:19:44 32° ESE
USA 229 4.0 03:09:43 10° NNW 03:16:38 52° NE 03:19:48 32° ESE
Cosmos 2285 Rocket 4.3 03:10:50 10° NNW 03:17:03 47° ENE 03:19:32 32° ESE
Helios 1B rocket 3.8 03:20:32 25° SSE 03:20:32 25° SSE 03:22:27 10° S
Cosmos 2219 3.5 03:16:09 10° S 03:21:33 43° ESE 03:23:09 35° ENE
Cosmos 1633 3.3 03:18:16 10° SSW 03:21:53 53° WNW 03:25:31 10° N
Okean 1-7 Rocket 3.5 03:17:44 10° N 03:22:18 80° E 03:25:47 17° SSE
Cosmos 2360 Rocket 2.5 03:16:48 10° NNW 03:22:26 67° WSW 03:28:01 10° SSE
Cosmos 1602 4.3 03:19:32 10° SSW 03:23:20 58° W 03:27:13 10° N
ERS-1 Rocket 4.3 03:25:34 24° NE 03:25:34 24° NE 03:28:26 10° N
Cosmos 2219 Rocket 2.7 03:20:15 10° NNW 03:25:28 38° NE 03:25:54 38° ENE
Okean 2 4.4 03:25:33 10° N 03:28:10 33° NNE 03:28:10 33° NNE
Cosmos 1025 Rocket 2.9 03:27:18 10° N 03:31:42 76° E 03:32:29 58° SSE
USA 215 4.5 03:29:06 18° NE 03:32:51 31° N 03:38:24 10° WNW
SL-16 R/B 4.0 03:33:30 10° N 03:36:07 16° NNE 03:36:07 16° NNE
ALOS 3.8 03:33:10 10° SSW 03:37:28 36° W 03:41:48 10° NNW
Spot 1 4.1 03:37:58 40° S 03:39:20 71° WSW 03:43:28 10° NNW
BREEZE-M DEB (TANK) 4.5 03:37:52 10° SW 03:39:11 19° SSW 03:39:11 19° SSW
Meteor 2-13 Rocket 4.3 03:41:04 10° S 03:46:59 59° E 03:52:58 10° NNE
NOSS 3-1 (C) 4.4 03:42:51 10° NNW 03:49:50 44° NE 03:51:11 41° ENE
Cosmos 2333 Rocket 2.6 03:45:59 10° NNW 03:51:05 48° NE 03:51:05 48° NE
Resurs 01 Rocket 3.5 03:51:13 10° SSW 03:55:04 29° W 03:58:56 10° NW
BREEZE-M DEB (TANK) 3.8 03:51:43 10° WNW 03:55:14 73° SSW 03:56:45 52° SE
Cosmos 1741 Rocket 4.0 03:50:56 10° SSW 03:56:10 79° WNW 03:59:12 26° NNE
NOSS 0 Rocket 3.9 03:57:28 10° NNW 04:03:16 62° NE 04:03:16 62° NE
Cosmos 1980 4.4 03:58:12 10° NNW 04:02:25 41° NNE 04:02:25 41° NNE
Cosmos 1610 Rocket 4.4 04:05:25 10° S 04:11:40 86° W 04:17:53 10° N
COSMOS 2428 4.0 04:35:18 10° NW 04:40:22 34° WSW 04:41:09 33° WSW
Cosmos 2237 Rocket 3.4 04:44:16 10° NNW 04:47:35 37° NNW 04:47:35 37° NNW
Cosmos 2219 Rocket 3.9 05:04:19 10° NW 05:07:39 29° WNW 05:07:39 29° WNW
USA 215 4.5 05:16:26 34° NNW 05:16:26 34° NNW 05:20:47 10° NW
SL-16 R/B 4.4 05:16:23 10° NNW 05:18:00 20° NNW 05:18:00 20° NNW
ATLAS 2AS CENTAUR R/B 4.1 05:18:57 10° NNW 05:24:18 35° N 05:24:18 35° N
Cosmos 2333 Rocket 4.4 05:30:46 10° NW 05:33:07 21° WNW 05:33:07 21° WNW
ADEOS Rocket 4.3 10:58:34 10° NNE 11:02:35 37° NNE 11:02:35 37° NNE
ATLAS 5 CENTAUR R/B 3.9 11:22:10 22° E 11:22:10 22° E 11:25:21 10° ENE
CZ-4B R/B 4.2 11:20:17 10° NNE 11:25:18 43° E 11:25:18 43° E
Cosmos 1943 Rocket 4.0 11:27:48 22° SE 11:29:23 25° ESE 11:33:49 10° NE
Okean O Rocket 4.1 11:27:24 10° NNE 11:28:23 16° NNE 11:28:23 16° NNE
Cosmos 2056 Rocket 4.3 11:49:33 45° ESE 11:49:53 45° ESE 11:54:50 10° NNE
PAYLOAD B 4.4 11:47:29 10° NNE 11:52:31 71° NE 11:52:31 71° NE
